Location: DARK SKY Beskydy - Park tmavé oblohy, www.darkskybeskydy.cz
(49.4926°N, 18.5016°E)
Time: 11:13:37
(UTC+02:00)

BlueWalker 3 - Pass Details

Date: 20 June 2024
Orbit: 480 x 491 km, 53.2° (Epoch: 23 July)

Event Time Altitude Azimuth Distance (km) Brightness Sun altitude
Rises 22:56:11 0° 254° (WSW) 2,535 5.6 -13.0°
Reaches altitude 10° 22:58:22 10° 256° (WSW) 1,655 4.7 -13.1°
Maximum altitude 23:02:05 70° 340° (NNW) 516 2.1 -13.4°
Drops below altitude 10° 23:05:49 10° 65° (ENE) 1,657 4.6 -13.6°
Sets 23:07:59 0° 68° (ENE) 2,538 5.5 -13.8°
